User: anonymous   Login
Location: White Ridge parking lot
(35.4984°N, 106.8413°W)
Time: 05:08:01
(UTC-06:00)
Language:

XW-2B - Orbit

View from above orbital plane
View from above orbital plane
View from above satellite
View from above satellite

Ground track
Ground track

The orbit data is extracted from the following two-line orbital elements,

1 40911U 15049N   19259.19863052  .00000587  00000-0  34114-4 0  9991
2 40911  97.4701 260.1527 0012536 245.5396 245.0330 15.15871508220461
Epoch (UTC): 16 September 2019 04:46:01
Eccentricity: 0.0012536
inclination: 97.4701°
perigee height: 509 km
apogee height: 527 km
right ascension of ascending node: 260.1527°
argument of perigee: 245.5396°
revolutions per day: 15.15871508
mean anomaly at epoch: 245.0330°
orbit number at epoch: 22046

The dashed part of the orbit path shows where the satellite is in the earth's shadow,  

DLR